Time,TemperatureF,DewpointF,PressureIn,WindDirection,WindDirectionDegrees,WindSpeedMPH,WindSpeedGustMPH,Humidity,HourlyPrecipIn,Conditions,Clouds,dailyrainin,SoftwareType,DateUTC
2013-01-25 00:00:00,50.5,48.6,30.12,WSW,254,0.0,0.0,93,0.04,,SKC,0.00,VWS V14.01,2013-01-25 08:00:00,
2013-01-25 00:03:00,50.5,48.6,30.12,WSW,254,0.0,0.0,93,0.04,,SKC,0.00,VWS V14.01,2013-01-25 08:03:00,
2013-01-25 00:08:00,50.4,48.5,30.12,WSW,254,0.0,0.0,93,0.04,,SKC,0.00,VWS V14.01,2013-01-25 08:08:00,
2013-01-25 00:13:00,50.4,48.5,30.12,WSW,254,0.0,0.0,93,0.05,,SKC,0.01,VWS V14.01,2013-01-25 08:13:00,
2013-01-25 00:18:00,50.4,48.5,30.11,WSW,254,0.0,0.0,93,0.06,,SKC,0.02,VWS V14.01,2013-01-25 08:18:00,
2013-01-25 00:23:00,50.4,48.5,30.11,WSW,254,0.0,0.0,93,0.06,,SKC,0.02,VWS V14.01,2013-01-25 08:23:00,
2013-01-25 00:28:00,50.4,48.5,30.11,WSW,254,0.0,0.0,93,0.07,,SKC,0.03,VWS V14.01,2013-01-25 08:28:00,
2013-01-25 00:30:00,50.4,48.5,30.11,WSW,254,0.0,0.0,93,0.07,,SKC,0.03,VWS V14.01,2013-01-25 08:30:00,
2013-01-25 00:33:00,50.4,48.5,30.11,WSW,254,0.0,0.0,93,0.06,,SKC,0.04,VWS V14.01,2013-01-25 08:33:00,
2013-01-25 00:38:00,50.4,48.5,30.11,WSW,254,0.0,0.0,93,0.06,,SKC,0.04,VWS V14.01,2013-01-25 08:38:00,
2013-01-25 00:43:00,50.4,48.5,30.11,WSW,254,0.0,0.0,93,0.06,,SKC,0.04,VWS V14.01,2013-01-25 08:43:00,
2013-01-25 00:48:00,50.4,48.5,30.11,WSW,254,0.0,0.0,93,0.06,,SKC,0.04,VWS V14.01,2013-01-25 08:48:00,
2013-01-25 00:53:00,50.4,48.5,30.11,WSW,254,0.0,0.0,93,0.06,,SKC,0.04,VWS V14.01,2013-01-25 08:53:00,
2013-01-25 00:59:00,50.4,48.5,30.11,WSW,254,0.0,0.0,93,0.06,,SKC,0.04,VWS V14.01,2013-01-25 08:59:00,
2013-01-25 01:00:00,50.4,48.5,30.11,WSW,254,0.0,0.0,93,0.06,,SKC,0.04,VWS V14.01,2013-01-25 09:00:00,
2013-01-25 01:04:00,50.4,48.5,30.11,WSW,254,0.0,0.0,93,0.04,,SKC,0.04,VWS V14.01,2013-01-25 09:04:00,
2013-01-25 01:09:00,50.4,48.5,30.11,WSW,254,0.0,0.0,93,0.04,,SKC,0.04,VWS V14.01,2013-01-25 09:09:00,
2013-01-25 01:14:00,50.4,48.5,30.11,WSW,254,0.0,0.0,93,0.04,,SKC,0.04,VWS V14.01,2013-01-25 09:14:00,
2013-01-25 01:19:00,50.4,48.5,30.11,WSW,254,0.0,0.0,93,0.04,,SKC,0.04,VWS V14.01,2013-01-25 09:19:00,
2013-01-25 01:24:00,50.4,48.5,30.11,WSW,254,0.0,0.0,93,0.04,,SKC,0.04,VWS V14.01,2013-01-25 09:24:00,
2013-01-25 01:29:00,50.4,48.5,30.11,WSW,254,0.0,0.0,93,0.04,,SKC,0.04,VWS V14.01,2013-01-25 09:29:00,
2013-01-25 01:30:00,50.4,48.5,30.11,WSW,254,0.0,0.0,93,0.04,,SKC,0.04,VWS V14.01,2013-01-25 09:30:00,
2013-01-25 01:34:00,50.4,48.5,30.11,WSW,254,0.0,1.0,93,0.01,,SKC,0.04,VWS V14.01,2013-01-25 09:34:00,
2013-01-25 01:39:00,50.2,48.3,30.11,WSW,254,0.0,1.0,93,0.01,,SKC,0.04,VWS V14.01,2013-01-25 09:39:00,
2013-01-25 01:44:00,50.2,48.3,30.11,WSW,254,0.0,1.0,93,0.01,,SKC,0.04,VWS V14.01,2013-01-25 09:44:00,
2013-01-25 01:49:00,50.2,48.3,30.11,WSW,254,0.0,1.0,93,0.01,,SKC,0.04,VWS V14.01,2013-01-25 09:49:00,
2013-01-25 01:54:00,50.2,48.3,30.11,WSW,254,0.0,1.0,93,0.01,,SKC,0.04,VWS V14.01,2013-01-25 09:54:00,
2013-01-25 01:59:00,50.2,48.3,30.11,WSW,254,0.0,1.0,93,0.01,,SKC,0.04,VWS V14.01,2013-01-25 09:59:00,
2013-01-25 02:00:00,50.2,48.3,30.11,WSW,254,0.0,1.0,93,0.01,,SKC,0.04,VWS V14.01,2013-01-25 10:00:00,
2013-01-25 02:04:00,50.2,48.3,30.11,WSW,254,0.0,0.0,93,0.00,,SKC,0.04,VWS V14.01,2013-01-25 10:04:00,
2013-01-25 02:09:00,50.2,48.3,30.11,WSW,254,0.0,0.0,93,0.00,,SKC,0.04,VWS V14.01,2013-01-25 10:09:00,
2013-01-25 02:14:00,50.2,48.3,30.12,WSW,254,0.0,0.0,93,0.00,,SKC,0.04,VWS V14.01,2013-01-25 10:14:00,
2013-01-25 02:19:00,50.2,48.5,30.12,WSW,254,0.0,0.0,94,0.00,,SKC,0.04,VWS V14.01,2013-01-25 10:19:00,
2013-01-25 02:24:00,50.1,48.4,30.12,WSW,254,0.0,0.0,94,0.00,,SKC,0.04,VWS V14.01,2013-01-25 10:24:00,
2013-01-25 02:29:00,50.2,48.5,30.12,WSW,254,0.0,1.0,94,0.00,,SKC,0.04,VWS V14.01,2013-01-25 10:29:00,
2013-01-25 02:30:00,50.2,48.5,30.12,WSW,254,0.0,1.0,94,0.00,,SKC,0.04,VWS V14.01,2013-01-25 10:30:00,
2013-01-25 02:34:00,50.4,48.7,30.12,WSW,254,0.0,0.0,94,0.00,,SKC,0.04,VWS V14.01,2013-01-25 10:34:00,
2013-01-25 02:39:00,50.2,48.5,30.12,WSW,254,0.0,0.0,94,0.01,,SKC,0.05,VWS V14.01,2013-01-25 10:39:00,
2013-01-25 02:44:00,50.2,48.5,30.12,WSW,254,0.0,0.0,94,0.01,,SKC,0.05,VWS V14.01,2013-01-25 10:44:00,
2013-01-25 02:49:00,50.2,48.5,30.12,WSW,254,0.0,0.0,94,0.02,,SKC,0.06,VWS V14.01,2013-01-25 10:49:00,
2013-01-25 02:54:00,50.2,48.5,30.12,WSW,254,0.0,0.0,94,0.04,,SKC,0.08,VWS V14.01,2013-01-25 10:54:00,
2013-01-25 02:59:00,50.4,48.7,30.12,WSW,254,0.0,0.0,94,0.04,,SKC,0.08,VWS V14.01,2013-01-25 10:59:00,
2013-01-25 03:00:00,50.4,48.7,30.12,WSW,254,0.0,0.0,94,0.04,,SKC,0.08,VWS V14.01,2013-01-25 11:00:00,
2013-01-25 03:05:00,50.4,48.7,30.12,WSW,254,0.0,0.0,94,0.05,,SKC,0.09,VWS V14.01,2013-01-25 11:05:00,
2013-01-25 03:10:00,50.4,48.7,30.12,WSW,254,0.0,0.0,94,0.06,,SKC,0.10,VWS V14.01,2013-01-25 11:10:00,
2013-01-25 03:15:00,50.4,48.7,30.11,WSW,254,0.0,0.0,94,0.06,,SKC,0.10,VWS V14.01,2013-01-25 11:15:00,
2013-01-25 03:20:00,50.4,48.7,30.11,WSW,254,0.0,0.0,94,0.08,,SKC,0.12,VWS V14.01,2013-01-25 11:20:00,
2013-01-25 03:25:00,50.4,48.7,30.11,WSW,254,0.0,0.0,94,0.09,,SKC,0.13,VWS V14.01,2013-01-25 11:25:00,
2013-01-25 03:30:00,50.4,48.7,30.11,WSW,254,0.0,0.0,94,0.10,,SKC,0.14,VWS V14.01,2013-01-25 11:30:00,
2013-01-25 03:35:00,50.4,48.7,30.11,WSW,254,0.0,0.0,94,0.11,,SKC,0.15,VWS V14.01,2013-01-25 11:35:00,
2013-01-25 03:40:00,50.4,48.7,30.11,WSW,254,0.0,0.0,94,0.12,,SKC,0.16,VWS V14.01,2013-01-25 11:40:00,
2013-01-25 03:45:00,50.4,48.7,30.11,WSW,254,0.0,0.0,94,0.12,,SKC,0.16,VWS V14.01,2013-01-25 11:45:00,
2013-01-25 03:50:00,50.4,48.7,30.11,WSW,254,0.0,0.0,94,0.13,,SKC,0.17,VWS V14.01,2013-01-25 11:50:00,
2013-01-25 03:55:00,50.4,48.7,30.11,WSW,254,0.0,0.0,94,0.14,,SKC,0.18,VWS V14.01,2013-01-25 11:55:00,
2013-01-25 04:00:00,50.2,48.5,30.10,WSW,254,0.0,0.0,94,0.10,,SKC,0.18,VWS V14.01,2013-01-25 12:00:00,
2013-01-25 04:05:00,50.2,48.5,30.10,WSW,254,0.0,0.0,94,0.10,,SKC,0.18,VWS V14.01,2013-01-25 12:05:00,
2013-01-25 04:10:00,50.2,48.5,30.10,WSW,254,0.0,0.0,94,0.10,,SKC,0.18,VWS V14.01,2013-01-25 12:10:00,
2013-01-25 04:15:00,50.2,48.5,30.11,WSW,254,0.0,0.0,94,0.10,,SKC,0.18,VWS V14.01,2013-01-25 12:15:00,
2013-01-25 04:20:00,50.2,48.5,30.11,WSW,254,0.0,0.0,94,0.10,,SKC,0.18,VWS V14.01,2013-01-25 12:20:00,
2013-01-25 04:25:00,50.2,48.5,30.11,WSW,254,0.0,0.0,94,0.10,,SKC,0.18,VWS V14.01,2013-01-25 12:25:00,
2013-01-25 04:30:00,50.1,48.4,30.10,WSW,254,0.0,0.0,94,0.04,,SKC,0.18,VWS V14.01,2013-01-25 12:30:00,
2013-01-25 04:35:00,50.1,48.4,30.10,WSW,254,0.0,0.0,94,0.04,,SKC,0.18,VWS V14.01,2013-01-25 12:35:00,
2013-01-25 04:40:00,50.2,48.5,30.10,SE,146,0.0,2.0,94,0.04,,SKC,0.18,VWS V14.01,2013-01-25 12:40:00,
2013-01-25 04:45:00,50.2,48.5,30.10,SE,146,0.0,2.0,94,0.04,,SKC,0.18,VWS V14.01,2013-01-25 12:45:00,
2013-01-25 04:50:00,50.4,48.7,30.10,SE,146,0.0,2.0,94,0.04,,SKC,0.18,VWS V14.01,2013-01-25 12:50:00,
2013-01-25 04:55:00,50.4,48.7,30.10,SE,146,0.0,2.0,94,0.04,,SKC,0.18,VWS V14.01,2013-01-25 12:55:00,
2013-01-25 05:00:00,50.2,48.5,30.10,SE,146,0.0,0.0,94,0.00,,SKC,0.18,VWS V14.01,2013-01-25 13:00:00,
2013-01-25 05:05:00,50.2,48.5,30.10,SE,146,1.0,2.0,94,0.00,,SKC,0.18,VWS V14.01,2013-01-25 13:05:00,
2013-01-25 05:10:00,50.4,48.7,30.10,ESE,123,1.0,3.0,94,0.00,,SKC,0.18,VWS V14.01,2013-01-25 13:10:00,
2013-01-25 05:15:00,50.4,48.7,30.10,ESE,123,0.0,3.0,94,0.00,,SKC,0.18,VWS V14.01,2013-01-25 13:15:00,
2013-01-25 05:21:00,50.2,48.5,30.10,ESE,123,0.0,3.0,94,0.00,,SKC,0.18,VWS V14.01,2013-01-25 13:21:00,
2013-01-25 05:26:00,50.2,48.5,30.10,ESE,123,0.0,3.0,94,0.00,,SKC,0.18,VWS V14.01,2013-01-25 13:26:00,
2013-01-25 05:30:00,50.2,48.5,30.10,ESE,123,0.0,3.0,94,0.00,,SKC,0.18,VWS V14.01,2013-01-25 13:30:00,
2013-01-25 05:31:00,50.2,48.5,30.10,ESE,123,0.0,0.0,94,0.00,,SKC,0.18,VWS V14.01,2013-01-25 13:31:00,
2013-01-25 05:36:00,50.2,48.5,30.10,ESE,123,0.0,0.0,94,0.00,,SKC,0.18,VWS V14.01,2013-01-25 13:36:00,
2013-01-25 05:41:00,50.2,48.5,30.10,ESE,123,0.0,0.0,94,0.00,,SKC,0.18,VWS V14.01,2013-01-25 13:41:00,
2013-01-25 05:46:00,50.1,48.4,30.10,ESE,123,0.0,0.0,94,0.00,,SKC,0.18,VWS V14.01,2013-01-25 13:46:00,
2013-01-25 05:51:00,49.9,48.2,30.10,ESE,123,0.0,0.0,94,0.00,,SKC,0.18,VWS V14.01,2013-01-25 13:51:00,
2013-01-25 05:56:00,49.9,48.2,30.10,ESE,123,0.0,1.0,94,0.00,,SKC,0.18,VWS V14.01,2013-01-25 13:56:00,
2013-01-25 06:00:00,50.1,48.4,30.10,ESE,123,0.0,2.0,94,0.00,,SKC,0.18,VWS V14.01,2013-01-25 14:00:00,
2013-01-25 06:01:00,50.1,48.4,30.10,ESE,123,0.0,0.0,94,0.00,,SKC,0.18,VWS V14.01,2013-01-25 14:01:00,
2013-01-25 06:06:00,50.2,48.5,30.10,ESE,123,0.0,0.0,94,0.00,,SKC,0.18,VWS V14.01,2013-01-25 14:06:00,
2013-01-25 06:11:00,50.2,48.5,30.10,ESE,123,0.0,0.0,94,0.00,,SKC,0.18,VWS V14.01,2013-01-25 14:11:00,
2013-01-25 06:16:00,50.2,48.5,30.11,ESE,123,0.0,0.0,94,0.00,,SKC,0.18,VWS V14.01,2013-01-25 14:16:00,
2013-01-25 06:21:00,50.2,48.5,30.11,ESE,123,0.0,1.0,94,0.00,,SKC,0.18,VWS V14.01,2013-01-25 14:21:00,
2013-01-25 06:26:00,50.4,48.7,30.11,East,82,0.0,3.0,94,0.00,,SKC,0.18,VWS V14.01,2013-01-25 14:26:00,
2013-01-25 06:30:00,50.4,48.7,30.11,NW,307,0.0,3.0,94,0.00,,SKC,0.18,VWS V14.01,2013-01-25 14:30:00,
2013-01-25 06:31:00,50.4,48.7,30.11,NW,307,0.0,0.0,94,0.00,,SKC,0.18,VWS V14.01,2013-01-25 14:31:00,
2013-01-25 06:36:00,50.2,48.5,30.11,WNW,300,0.0,2.0,94,0.00,,SKC,0.18,VWS V14.01,2013-01-25 14:36:00,
2013-01-25 06:41:00,50.2,48.5,30.11,WNW,300,0.0,2.0,94,0.00,,SKC,0.18,VWS V14.01,2013-01-25 14:41:00,
2013-01-25 06:46:00,50.1,48.4,30.12,WNW,300,0.0,2.0,94,0.00,,SKC,0.18,VWS V14.01,2013-01-25 14:46:00,
2013-01-25 06:51:00,50.1,48.4,30.12,WNW,300,0.0,2.0,94,0.01,,SKC,0.19,VWS V14.01,2013-01-25 14:51:00,
2013-01-25 06:56:00,50.1,48.4,30.12,WNW,300,0.0,2.0,94,0.01,,SKC,0.19,VWS V14.01,2013-01-25 14:56:00,
2013-01-25 07:00:00,50.1,48.4,30.12,WNW,300,0.0,2.0,94,0.01,,SKC,0.19,VWS V14.01,2013-01-25 15:00:00,
2013-01-25 07:01:00,50.1,48.4,30.12,WNW,300,0.0,0.0,94,0.01,,SKC,0.19,VWS V14.01,2013-01-25 15:01:00,
2013-01-25 07:06:00,49.9,48.2,30.12,WNW,300,0.0,0.0,94,0.01,,SKC,0.19,VWS V14.01,2013-01-25 15:06:00,
2013-01-25 07:11:00,49.9,48.2,30.12,WNW,300,0.0,1.0,94,0.01,,SKC,0.19,VWS V14.01,2013-01-25 15:11:00,
2013-01-25 07:16:00,49.9,48.2,30.12,WNW,300,0.0,1.0,94,0.01,,SKC,0.19,VWS V14.01,2013-01-25 15:16:00,
2013-01-25 07:21:00,49.9,48.2,30.12,WNW,300,0.0,1.0,94,0.01,,SKC,0.19,VWS V14.01,2013-01-25 15:21:00,
2013-01-25 07:27:00,49.9,48.2,30.12,WNW,300,0.0,1.0,94,0.02,,SKC,0.20,VWS V14.01,2013-01-25 15:27:00,
2013-01-25 07:30:00,49.9,48.2,30.12,WNW,300,0.0,1.0,94,0.02,,SKC,0.20,VWS V14.01,2013-01-25 15:30:00,
2013-01-25 07:32:00,49.9,48.2,30.12,WNW,300,0.0,0.0,94,0.02,,SKC,0.20,VWS V14.01,2013-01-25 15:32:00,
2013-01-25 07:37:00,49.9,48.2,30.12,WNW,300,0.0,0.0,94,0.02,,SKC,0.20,VWS V14.01,2013-01-25 15:37:00,
2013-01-25 07:42:00,49.9,48.2,30.12,WNW,300,0.0,0.0,94,0.02,,SKC,0.20,VWS V14.01,2013-01-25 15:42:00,
2013-01-25 07:47:00,49.9,48.2,30.12,WNW,300,0.0,0.0,94,0.02,,SKC,0.20,VWS V14.01,2013-01-25 15:47:00,
2013-01-25 07:52:00,49.9,48.2,30.12,WNW,300,0.0,0.0,94,0.02,,SKC,0.20,VWS V14.01,2013-01-25 15:52:00,
2013-01-25 07:57:00,49.9,48.2,30.12,WNW,300,0.0,0.0,94,0.02,,SKC,0.20,VWS V14.01,2013-01-25 15:57:00,
2013-01-25 08:00:00,49.9,48.2,30.12,WNW,300,0.0,0.0,94,0.02,,SKC,0.20,VWS V14.01,2013-01-25 16:00:00,
2013-01-25 08:02:00,50.1,48.4,30.12,WNW,300,0.0,0.0,94,0.01,,SKC,0.20,VWS V14.01,2013-01-25 16:02:00,
2013-01-25 08:07:00,50.1,48.4,30.12,WNW,300,0.0,0.0,94,0.01,,SKC,0.20,VWS V14.01,2013-01-25 16:07:00,
2013-01-25 08:12:00,50.1,48.4,30.12,WNW,300,0.0,0.0,94,0.01,,SKC,0.20,VWS V14.01,2013-01-25 16:12:00,
2013-01-25 08:17:00,50.1,48.4,30.11,WNW,300,0.0,2.0,94,0.01,,SKC,0.20,VWS V14.01,2013-01-25 16:17:00,
2013-01-25 08:22:00,50.1,48.4,30.11,East,82,1.0,2.0,94,0.01,,SKC,0.20,VWS V14.01,2013-01-25 16:22:00,
2013-01-25 08:27:00,50.2,48.5,30.11,East,82,0.0,2.0,94,0.01,,SKC,0.20,VWS V14.01,2013-01-25 16:27:00,
2013-01-25 08:30:00,50.4,48.7,30.11,East,95,0.0,3.0,94,0.01,,SKC,0.20,VWS V14.01,2013-01-25 16:30:00,
2013-01-25 08:32:00,50.4,48.7,30.11,East,95,0.0,0.0,94,0.00,,SKC,0.20,VWS V14.01,2013-01-25 16:32:00,
2013-01-25 08:37:00,50.4,48.7,30.11,East,95,0.0,1.0,94,0.00,,SKC,0.20,VWS V14.01,2013-01-25 16:37:00,
2013-01-25 08:42:00,50.5,48.8,30.11,East,95,0.0,2.0,94,0.00,,SKC,0.20,VWS V14.01,2013-01-25 16:42:00,
2013-01-25 08:47:00,50.5,48.8,30.11,East,95,0.0,2.0,94,0.00,,SKC,0.20,VWS V14.01,2013-01-25 16:47:00,
2013-01-25 08:52:00,50.7,49.0,30.11,East,95,0.0,2.0,94,0.00,,SKC,0.20,VWS V14.01,2013-01-25 16:52:00,
2013-01-25 08:57:00,50.7,49.0,30.11,East,95,0.0,2.0,94,0.00,,SKC,0.20,VWS V14.01,2013-01-25 16:57:00,
2013-01-25 09:00:00,50.8,49.1,30.11,East,95,0.0,2.0,94,0.00,,SKC,0.20,VWS V14.01,2013-01-25 17:00:00,
2013-01-25 09:02:00,51.0,49.3,30.11,East,95,0.0,0.0,94,0.00,,SKC,0.20,VWS V14.01,2013-01-25 17:02:00,
2013-01-25 09:07:00,51.0,49.3,30.11,East,95,0.0,0.0,94,0.00,,SKC,0.20,VWS V14.01,2013-01-25 17:07:00,
2013-01-25 09:12:00,51.1,49.4,30.11,East,95,0.0,1.0,94,0.00,,SKC,0.20,VWS V14.01,2013-01-25 17:12:00,
2013-01-25 09:18:00,51.3,49.6,30.11,East,95,0.0,1.0,94,0.00,,SKC,0.20,VWS V14.01,2013-01-25 17:18:00,
2013-01-25 09:23:00,51.7,50.0,30.11,East,95,0.0,1.0,94,0.00,,SKC,0.20,VWS V14.01,2013-01-25 17:23:00,
2013-01-25 09:28:00,52.2,50.5,30.11,East,95,0.0,1.0,94,0.00,,SKC,0.20,VWS V14.01,2013-01-25 17:28:00,
2013-01-25 09:30:00,52.3,50.6,30.11,East,95,0.0,1.0,94,0.00,,SKC,0.20,VWS V14.01,2013-01-25 17:30:00,
2013-01-25 09:33:00,52.6,50.9,30.11,East,95,0.0,0.0,94,0.00,,SKC,0.20,VWS V14.01,2013-01-25 17:33:00,
2013-01-25 09:38:00,53.2,51.5,30.11,East,95,0.0,0.0,94,0.00,,SKC,0.20,VWS V14.01,2013-01-25 17:38:00,
2013-01-25 09:43:00,53.5,52.1,30.11,East,95,0.0,0.0,95,0.00,,SKC,0.20,VWS V14.01,2013-01-25 17:43:00,
2013-01-25 09:48:00,53.3,51.6,30.11,East,95,0.0,0.0,94,0.00,,SKC,0.20,VWS V14.01,2013-01-25 17:48:00,
2013-01-25 09:53:00,53.5,51.8,30.11,East,95,0.0,0.0,94,0.00,,SKC,0.20,VWS V14.01,2013-01-25 17:53:00,
2013-01-25 10:00:00,54.2,52.8,30.11,North,0,0.0,0.0,95,0.00,,SKC,0.20,VWS V14.01,2013-01-25 18:00:00,
2013-01-25 10:30:00,55.4,53.7,30.10,SE,135,0.0,3.0,94,0.00,,SKC,0.20,VWS V14.01,2013-01-25 18:30:00,
2013-01-25 11:00:00,56.9,53.1,30.09,SE,135,0.0,3.0,87,0.00,,SKC,0.20,VWS V14.01,2013-01-25 19:00:00,
2013-01-25 11:30:00,58.9,51.7,30.07,SE,135,0.0,5.0,77,0.00,,SKC,0.20,VWS V14.01,2013-01-25 19:30:00,
2013-01-25 12:00:00,58.7,51.5,30.05,SSW,202,0.0,5.0,77,0.00,,SKC,0.20,VWS V14.01,2013-01-25 20:00:00,
2013-01-25 12:30:00,59.0,51.1,30.04,SW,225,0.0,4.0,75,0.00,,SKC,0.20,VWS V14.01,2013-01-25 20:30:00,
2013-01-25 13:00:00,57.6,51.8,30.03,WNW,292,1.0,7.0,81,0.00,,SKC,0.20,VWS V14.01,2013-01-25 21:00:00,
2013-01-25 13:30:00,58.1,51.3,30.01,West,267,0.0,7.0,78,0.00,,SKC,0.20,VWS V14.01,2013-01-25 21:30:00,
2013-01-25 13:49:00,56.9,51.8,30.02,NW,305,0.0,1.0,83,0.00,,SKC,0.20,VWS V14.01,2013-01-25 21:49:00,
2013-01-25 13:54:00,56.9,51.5,30.02,NW,305,0.0,1.0,82,0.00,,SKC,0.20,VWS V14.01,2013-01-25 21:54:00,
2013-01-25 13:59:00,57.0,51.9,30.01,NW,305,0.0,1.0,83,0.00,,SKC,0.20,VWS V14.01,2013-01-25 21:59:00,
2013-01-25 14:00:00,56.7,50.9,30.02,NW,319,3.0,6.0,81,0.00,,SKC,0.20,VWS V14.01,2013-01-25 22:00:00,
2013-01-25 14:04:00,57.2,51.4,30.01,NW,305,0.0,1.0,81,0.00,,SKC,0.20,VWS V14.01,2013-01-25 22:04:00,
2013-01-25 14:09:00,57.3,51.5,30.01,NW,305,0.0,2.0,81,0.00,,SKC,0.20,VWS V14.01,2013-01-25 22:09:00,
2013-01-25 14:14:00,57.3,51.2,30.01,NW,315,0.0,5.0,80,0.00,,SKC,0.20,VWS V14.01,2013-01-25 22:14:00,
2013-01-25 14:19:00,57.5,51.0,30.01,WNW,300,0.0,5.0,79,0.00,,SKC,0.20,VWS V14.01,2013-01-25 22:19:00,
2013-01-25 14:24:00,57.8,51.7,30.01,NW,305,0.0,5.0,80,0.00,,SKC,0.20,VWS V14.01,2013-01-25 22:24:00,
2013-01-25 14:30:00,58.1,51.3,30.01,West,267,0.0,7.0,78,0.00,,SKC,0.20,VWS V14.01,2013-01-25 22:30:00,
2013-01-25 14:35:00,58.3,51.5,30.01,NNW,336,0.0,6.0,78,0.00,,SKC,0.20,VWS V14.01,2013-01-25 22:35:00,
2013-01-25 14:40:00,58.1,51.3,30.01,NW,311,0.0,6.0,78,0.00,,SKC,0.20,VWS V14.01,2013-01-25 22:40:00,
2013-01-25 14:45:00,57.5,51.0,30.01,WNW,290,0.0,6.0,79,0.00,,SKC,0.20,VWS V14.01,2013-01-25 22:45:00,
2013-01-25 14:50:00,57.2,51.1,30.01,WNW,296,0.0,6.0,80,0.00,,SKC,0.20,VWS V14.01,2013-01-25 22:50:00,
2013-01-25 14:55:00,56.9,51.1,30.01,WNW,296,1.0,6.0,81,0.00,,SKC,0.20,VWS V14.01,2013-01-25 22:55:00,
2013-01-25 15:00:00,56.7,50.9,30.02,WNW,294,1.0,6.0,81,0.00,,SKC,0.20,VWS V14.01,2013-01-25 23:00:00,
2013-01-25 15:05:00,56.6,50.8,30.02,WNW,288,0.0,9.0,81,0.00,,SKC,0.20,VWS V14.01,2013-01-25 23:05:00,
2013-01-25 15:10:00,56.6,51.2,30.02,WNW,298,5.0,9.0,82,0.00,,SKC,0.20,VWS V14.01,2013-01-25 23:10:00,
2013-01-25 15:15:00,56.6,50.8,30.01,WNW,289,0.0,9.0,81,0.00,,SKC,0.20,VWS V14.01,2013-01-25 23:15:00,
2013-01-25 15:20:00,56.6,50.8,30.01,WNW,288,5.0,10.0,81,0.00,,SKC,0.20,VWS V14.01,2013-01-25 23:20:00,
2013-01-25 15:25:00,56.7,51.3,30.01,West,276,0.0,10.0,82,0.00,,SKC,0.20,VWS V14.01,2013-01-25 23:25:00,
2013-01-25 15:30:00,56.9,50.8,30.01,West,261,3.0,3.0,80,0.00,,SKC,0.20,VWS V14.01,2013-01-25 23:30:00,
2013-01-25 15:35:00,57.0,50.9,30.01,West,261,0.0,3.0,80,0.00,,SKC,0.20,VWS V14.01,2013-01-25 23:35:00,
2013-01-25 15:41:00,57.0,50.9,30.01,NNW,330,0.0,3.0,80,0.00,,SKC,0.20,VWS V14.01,2013-01-25 23:41:00,
2013-01-25 15:46:00,57.2,50.1,30.01,NW,311,0.0,5.0,77,0.00,,SKC,0.20,VWS V14.01,2013-01-25 23:46:00,
2013-01-25 15:51:00,57.2,50.4,30.01,NW,311,0.0,5.0,78,0.00,,SKC,0.20,VWS V14.01,2013-01-25 23:51:00,
2013-01-25 15:56:00,57.2,50.1,30.01,NW,311,0.0,5.0,77,0.00,,SKC,0.20,VWS V14.01,2013-01-25 23:56:00,
2013-01-25 16:00:00,55.4,49.7,30.00,NW,313,0.0,4.0,81,0.00,,SKC,0.20,VWS V14.01,2013-01-26 00:00:00,
2013-01-25 16:01:00,56.9,50.1,30.00,NW,311,0.0,0.0,78,0.00,,SKC,0.20,VWS V14.01,2013-01-26 00:01:00,
2013-01-25 16:06:00,56.7,49.9,30.00,NW,311,0.0,0.0,78,0.00,,SKC,0.20,VWS V14.01,2013-01-26 00:06:00,
2013-01-25 16:11:00,56.6,50.2,30.00,NW,311,0.0,0.0,79,0.00,,SKC,0.20,VWS V14.01,2013-01-26 00:11:00,
2013-01-25 16:16:00,56.5,49.7,29.99,NW,311,0.0,0.0,78,0.00,,SKC,0.20,VWS V14.01,2013-01-26 00:16:00,
2013-01-25 16:21:00,56.6,49.5,29.99,NW,311,0.0,0.0,77,0.00,,SKC,0.20,VWS V14.01,2013-01-26 00:21:00,
2013-01-25 16:26:00,56.7,49.9,29.99,NW,311,0.0,0.0,78,0.00,,SKC,0.20,VWS V14.01,2013-01-26 00:26:00,
2013-01-25 16:30:00,53.8,49.4,30.00,NW,313,0.0,0.0,85,0.00,,SKC,0.20,VWS V14.01,2013-01-26 00:30:00,
2013-01-25 16:31:00,56.6,49.8,29.99,NW,311,0.0,0.0,78,0.00,,SKC,0.20,VWS V14.01,2013-01-26 00:31:00,
2013-01-25 16:36:00,56.3,50.2,29.99,NW,311,0.0,1.0,80,0.00,,SKC,0.20,VWS V14.01,2013-01-26 00:36:00,
2013-01-25 16:42:00,55.9,50.2,29.99,NW,311,4.0,4.0,81,0.00,,SKC,0.20,VWS V14.01,2013-01-26 00:42:00,
2013-01-25 16:47:00,55.4,49.7,29.99,NW,311,2.0,4.0,81,0.00,,SKC,0.20,VWS V14.01,2013-01-26 00:47:00,
2013-01-25 16:52:00,55.4,49.3,29.99,NW,313,0.0,4.0,80,0.00,,SKC,0.20,VWS V14.01,2013-01-26 00:52:00,
2013-01-25 16:57:00,55.4,49.3,29.99,NW,313,0.0,4.0,80,0.00,,SKC,0.20,VWS V14.01,2013-01-26 00:57:00,
2013-01-25 17:00:00,52.3,48.9,30.00,NW,313,0.0,0.0,88,0.00,,SKC,0.20,VWS V14.01,2013-01-26 01:00:00,
2013-01-25 17:02:00,55.3,49.6,30.00,NW,313,0.0,0.0,81,0.00,,SKC,0.20,VWS V14.01,2013-01-26 01:02:00,
2013-01-25 17:07:00,55.1,49.4,30.00,NW,313,0.0,0.0,81,0.00,,SKC,0.20,VWS V14.01,2013-01-26 01:07:00,
2013-01-25 17:12:00,55.0,49.3,30.00,NW,313,0.0,0.0,81,0.00,,SKC,0.20,VWS V14.01,2013-01-26 01:12:00,
2013-01-25 17:17:00,54.7,49.3,30.00,NW,313,0.0,0.0,82,0.00,,SKC,0.20,VWS V14.01,2013-01-26 01:17:00,
2013-01-25 17:22:00,54.4,49.3,30.00,NW,313,0.0,0.0,83,0.00,,SKC,0.20,VWS V14.01,2013-01-26 01:22:00,
2013-01-25 17:27:00,53.9,49.2,30.00,NW,313,0.0,0.0,84,0.00,,SKC,0.20,VWS V14.01,2013-01-26 01:27:00,
2013-01-25 17:30:00,51.4,48.6,30.01,NW,313,0.0,0.0,90,0.00,,SKC,0.20,VWS V14.01,2013-01-26 01:30:00,
2013-01-25 17:32:00,53.5,49.4,30.00,NW,313,0.0,0.0,86,0.00,,SKC,0.20,VWS V14.01,2013-01-26 01:32:00,
2013-01-25 17:38:00,53.2,49.1,30.00,NW,313,0.0,0.0,86,0.00,,SKC,0.20,VWS V14.01,2013-01-26 01:38:00,
2013-01-25 17:43:00,52.9,49.1,30.00,NW,313,0.0,0.0,87,0.00,,SKC,0.20,VWS V14.01,2013-01-26 01:43:00,
2013-01-25 17:48:00,52.8,49.0,30.00,NW,313,0.0,0.0,87,0.00,,SKC,0.20,VWS V14.01,2013-01-26 01:48:00,
2013-01-25 17:53:00,52.5,49.0,30.00,NW,313,0.0,0.0,88,0.00,,SKC,0.20,VWS V14.01,2013-01-26 01:53:00,
2013-01-25 17:58:00,52.3,48.9,30.00,NW,313,0.0,0.0,88,0.00,,SKC,0.20,VWS V14.01,2013-01-26 01:58:00,
2013-01-25 18:00:00,51.7,49.2,30.00,NW,313,0.0,0.0,91,0.00,,SKC,0.20,VWS V14.01,2013-01-26 02:00:00,
2013-01-25 18:03:00,52.2,48.8,30.00,NW,313,0.0,0.0,88,0.00,,SKC,0.20,VWS V14.01,2013-01-26 02:03:00,
2013-01-25 18:08:00,51.9,48.5,30.00,NW,313,0.0,0.0,88,0.00,,SKC,0.20,VWS V14.01,2013-01-26 02:08:00,
2013-01-25 18:13:00,51.7,48.3,30.00,NW,313,0.0,0.0,88,0.00,,SKC,0.20,VWS V14.01,2013-01-26 02:13:00,
2013-01-25 18:18:00,51.4,48.3,30.00,NW,313,0.0,0.0,89,0.00,,SKC,0.20,VWS V14.01,2013-01-26 02:18:00,
2013-01-25 18:23:00,51.4,48.3,30.00,NW,313,0.0,0.0,89,0.00,,SKC,0.20,VWS V14.01,2013-01-26 02:23:00,
2013-01-25 18:28:00,51.4,48.6,30.00,NW,313,0.0,0.0,90,0.00,,SKC,0.20,VWS V14.01,2013-01-26 02:28:00,
2013-01-25 18:30:00,51.0,48.5,29.99,NE,53,0.0,3.0,91,0.00,,SKC,0.20,VWS V14.01,2013-01-26 02:30:00,
2013-01-25 18:34:00,51.3,48.5,30.01,NW,313,0.0,0.0,90,0.00,,SKC,0.20,VWS V14.01,2013-01-26 02:34:00,
2013-01-25 18:39:00,51.3,48.5,30.01,NW,313,0.0,0.0,90,0.00,,SKC,0.20,VWS V14.01,2013-01-26 02:39:00,
2013-01-25 18:44:00,51.6,49.1,30.00,NW,313,0.0,0.0,91,0.00,,SKC,0.20,VWS V14.01,2013-01-26 02:44:00,
2013-01-25 18:49:00,51.7,49.2,30.00,NW,313,0.0,0.0,91,0.00,,SKC,0.20,VWS V14.01,2013-01-26 02:49:00,
2013-01-25 18:54:00,51.7,49.2,30.00,NW,313,0.0,0.0,91,0.00,,SKC,0.20,VWS V14.01,2013-01-26 02:54:00,
2013-01-25 18:59:00,51.7,49.2,30.00,NW,313,0.0,0.0,91,0.00,,SKC,0.20,VWS V14.01,2013-01-26 02:59:00,
2013-01-25 19:00:00,50.7,48.5,29.99,East,79,0.0,2.0,92,0.00,,SKC,0.20,VWS V14.01,2013-01-26 03:00:00,
2013-01-25 19:04:00,51.7,49.2,30.00,NW,313,0.0,0.0,91,0.00,,SKC,0.20,VWS V14.01,2013-01-26 03:04:00,
2013-01-25 19:09:00,51.6,49.1,30.00,NW,313,0.0,0.0,91,0.00,,SKC,0.20,VWS V14.01,2013-01-26 03:09:00,
2013-01-25 19:14:00,51.3,48.8,30.00,NW,313,0.0,0.0,91,0.00,,SKC,0.20,VWS V14.01,2013-01-26 03:14:00,
2013-01-25 19:19:00,51.1,48.6,30.00,NW,313,0.0,0.0,91,0.00,,SKC,0.20,VWS V14.01,2013-01-26 03:19:00,
2013-01-25 19:25:00,51.0,48.5,30.00,NW,313,0.0,0.0,91,0.00,,SKC,0.20,VWS V14.01,2013-01-26 03:25:00,
2013-01-25 19:30:00,51.0,48.5,29.99,NE,53,0.0,3.0,91,0.00,,SKC,0.20,VWS V14.01,2013-01-26 03:30:00,
2013-01-25 19:35:00,51.3,49.1,29.99,NE,53,0.0,2.0,92,0.00,,SKC,0.20,VWS V14.01,2013-01-26 03:35:00,
2013-01-25 19:40:00,51.0,48.5,29.99,NE,53,0.0,2.0,91,0.00,,SKC,0.20,VWS V14.01,2013-01-26 03:40:00,
2013-01-25 19:45:00,50.8,48.6,29.99,East,79,0.0,2.0,92,0.00,,SKC,0.20,VWS V14.01,2013-01-26 03:45:00,
2013-01-25 19:50:00,51.0,48.8,29.99,East,80,0.0,2.0,92,0.00,,SKC,0.20,VWS V14.01,2013-01-26 03:50:00,
2013-01-25 19:55:00,51.0,48.8,29.99,East,79,0.0,2.0,92,0.00,,SKC,0.20,VWS V14.01,2013-01-26 03:55:00,
2013-01-25 20:00:00,50.7,48.5,29.99,East,79,0.0,0.0,92,0.00,,SKC,0.20,VWS V14.01,2013-01-26 04:00:00,
2013-01-25 20:05:00,50.7,48.5,29.99,East,79,0.0,0.0,92,0.00,,SKC,0.20,VWS V14.01,2013-01-26 04:05:00,
2013-01-25 20:11:00,50.7,48.5,29.99,East,79,0.0,0.0,92,0.00,,SKC,0.20,VWS V14.01,2013-01-26 04:11:00,
2013-01-25 20:16:00,50.8,48.6,29.98,East,79,0.0,0.0,92,0.00,,SKC,0.20,VWS V14.01,2013-01-26 04:16:00,
2013-01-25 20:21:00,51.0,48.8,29.98,East,79,0.0,0.0,92,0.00,,SKC,0.20,VWS V14.01,2013-01-26 04:21:00,
2013-01-25 20:26:00,51.1,48.9,29.98,East,80,0.0,0.0,92,0.00,,SKC,0.20,VWS V14.01,2013-01-26 04:26:00,
2013-01-25 20:30:00,51.3,49.3,29.98,NW,320,1.0,10.0,93,0.00,,SKC,0.20,VWS V14.01,2013-01-26 04:30:00,
2013-01-25 20:31:00,51.1,48.9,29.98,East,80,0.0,0.0,92,0.00,,SKC,0.20,VWS V14.01,2013-01-26 04:31:00,
2013-01-25 20:36:00,50.8,48.6,29.98,East,80,0.0,0.0,92,0.00,,SKC,0.20,VWS V14.01,2013-01-26 04:36:00,
2013-01-25 20:41:00,50.7,48.5,29.98,East,79,0.0,0.0,92,0.00,,SKC,0.20,VWS V14.01,2013-01-26 04:41:00,
2013-01-25 20:46:00,50.7,48.5,29.97,East,79,0.0,0.0,92,0.00,,SKC,0.20,VWS V14.01,2013-01-26 04:46:00,
2013-01-25 20:51:00,50.5,48.3,29.97,East,79,0.0,1.0,92,0.00,,SKC,0.20,VWS V14.01,2013-01-26 04:51:00,
2013-01-25 20:56:00,50.5,48.6,29.97,NNE,16,0.0,2.0,93,0.00,,SKC,0.20,VWS V14.01,2013-01-26 04:56:00,
2013-01-25 21:00:00,50.8,48.8,29.98,NW,304,0.0,4.0,93,0.00,,SKC,0.20,VWS V14.01,2013-01-26 05:00:00,
2013-01-25 21:03:00,51.0,49.0,29.98,NW,304,0.0,4.0,93,0.00,,SKC,0.20,VWS V14.01,2013-01-26 05:03:00,
2013-01-25 21:06:00,51.1,49.2,29.98,NW,304,0.0,4.0,93,0.00,,SKC,0.20,VWS V14.01,2013-01-26 05:06:00,
2013-01-25 21:11:00,51.1,49.2,29.98,NW,305,2.0,4.0,93,0.00,,SKC,0.20,VWS V14.01,2013-01-26 05:11:00,
2013-01-25 21:16:00,51.3,49.3,29.98,NW,307,0.0,4.0,93,0.00,,SKC,0.20,VWS V14.01,2013-01-26 05:16:00,
2013-01-25 21:21:00,51.3,49.3,29.98,NW,310,0.0,6.0,93,0.00,,SKC,0.20,VWS V14.01,2013-01-26 05:21:00,
2013-01-25 21:26:00,51.3,49.3,29.98,WNW,302,0.0,6.0,93,0.00,,SKC,0.20,VWS V14.01,2013-01-26 05:26:00,
2013-01-25 21:30:00,51.0,49.0,29.98,NW,306,0.0,5.0,93,0.00,,SKC,0.20,VWS V14.01,2013-01-26 05:30:00,
2013-01-25 21:31:00,51.3,49.3,29.98,NW,320,1.0,1.0,93,0.00,,SKC,0.20,VWS V14.01,2013-01-26 05:31:00,
2013-01-25 21:36:00,51.3,49.3,29.98,NW,304,2.0,4.0,93,0.00,,SKC,0.20,VWS V14.01,2013-01-26 05:36:00,
2013-01-25 21:42:00,51.3,49.3,29.98,NW,307,4.0,9.0,93,0.00,,SKC,0.20,VWS V14.01,2013-01-26 05:42:00,
2013-01-25 21:47:00,51.3,49.3,29.98,NNW,338,0.0,9.0,93,0.00,,SKC,0.20,VWS V14.01,2013-01-26 05:47:00,
2013-01-25 21:52:00,51.3,49.3,29.98,NNW,328,0.0,9.0,93,0.00,,SKC,0.20,VWS V14.01,2013-01-26 05:52:00,
2013-01-25 21:57:00,51.3,49.3,29.98,NNW,328,0.0,9.0,93,0.00,,SKC,0.20,VWS V14.01,2013-01-26 05:57:00,
2013-01-25 22:00:00,50.4,48.5,29.98,NW,306,0.0,0.0,93,0.00,,SKC,0.20,VWS V14.01,2013-01-26 06:00:00,
2013-01-25 22:02:00,51.1,49.2,29.98,North,351,0.0,0.0,93,0.00,,SKC,0.20,VWS V14.01,2013-01-26 06:02:00,
2013-01-25 22:07:00,51.1,49.2,29.98,NNW,328,0.0,4.0,93,0.00,,SKC,0.20,VWS V14.01,2013-01-26 06:07:00,
2013-01-25 22:12:00,51.1,49.2,29.98,NW,306,0.0,5.0,93,0.00,,SKC,0.20,VWS V14.01,2013-01-26 06:12:00,
2013-01-25 22:17:00,51.1,49.2,29.98,NW,306,0.0,5.0,93,0.00,,SKC,0.20,VWS V14.01,2013-01-26 06:17:00,
2013-01-25 22:22:00,51.1,49.2,29.98,NW,306,0.0,5.0,93,0.00,,SKC,0.20,VWS V14.01,2013-01-26 06:22:00,
2013-01-25 22:27:00,51.0,49.0,29.98,NW,306,0.0,5.0,93,0.00,,SKC,0.20,VWS V14.01,2013-01-26 06:27:00,
2013-01-25 22:30:00,49.9,48.0,29.97,NW,306,0.0,0.0,93,0.00,,SKC,0.20,VWS V14.01,2013-01-26 06:30:00,
2013-01-25 22:33:00,51.0,49.0,29.98,NW,306,0.0,0.0,93,0.00,,SKC,0.20,VWS V14.01,2013-01-26 06:33:00,
2013-01-25 22:38:00,50.8,48.8,29.98,NW,306,0.0,0.0,93,0.00,,SKC,0.20,VWS V14.01,2013-01-26 06:38:00,
2013-01-25 22:43:00,50.7,48.8,29.98,NW,306,0.0,0.0,93,0.00,,SKC,0.20,VWS V14.01,2013-01-26 06:43:00,
2013-01-25 22:48:00,50.7,48.8,29.98,NW,306,0.0,0.0,93,0.00,,SKC,0.20,VWS V14.01,2013-01-26 06:48:00,
2013-01-25 22:53:00,50.5,48.6,29.98,NW,306,0.0,0.0,93,0.00,,SKC,0.20,VWS V14.01,2013-01-26 06:53:00,
2013-01-25 22:58:00,50.4,48.5,29.98,NW,306,0.0,0.0,93,0.00,,SKC,0.20,VWS V14.01,2013-01-26 06:58:00,
2013-01-25 23:00:00,49.5,47.6,29.97,NW,306,0.0,0.0,93,0.00,,SKC,0.20,VWS V14.01,2013-01-26 07:00:00,
2013-01-25 23:03:00,50.2,48.3,29.98,NW,306,0.0,0.0,93,0.00,,SKC,0.20,VWS V14.01,2013-01-26 07:03:00,
2013-01-25 23:08:00,50.1,48.2,29.98,NW,306,0.0,0.0,93,0.00,,SKC,0.20,VWS V14.01,2013-01-26 07:08:00,
2013-01-25 23:13:00,50.1,48.2,29.98,NW,306,0.0,0.0,93,0.00,,SKC,0.20,VWS V14.01,2013-01-26 07:13:00,
2013-01-25 23:18:00,49.9,48.0,29.98,NW,306,0.0,0.0,93,0.00,,SKC,0.20,VWS V14.01,2013-01-26 07:18:00,
2013-01-25 23:24:00,50.1,48.2,29.98,NW,306,0.0,0.0,93,0.00,,SKC,0.20,VWS V14.01,2013-01-26 07:24:00,
2013-01-25 23:29:00,49.9,48.0,29.98,NW,306,0.0,0.0,93,0.00,,SKC,0.20,VWS V14.01,2013-01-26 07:29:00,
2013-01-25 23:30:00,49.1,47.2,29.97,NW,306,0.0,0.0,93,0.00,,SKC,0.00,VWS V14.01,2013-01-26 07:30:00,
2013-01-25 23:34:00,49.8,47.9,29.97,NW,306,0.0,0.0,93,0.00,,SKC,0.20,VWS V14.01,2013-01-26 07:34:00,
2013-01-25 23:39:00,49.8,47.9,29.97,NW,306,0.0,0.0,93,0.00,,SKC,0.20,VWS V14.01,2013-01-26 07:39:00,
2013-01-25 23:44:00,49.6,47.7,29.97,NW,306,0.0,0.0,93,0.00,,SKC,0.20,VWS V14.01,2013-01-26 07:44:00,
2013-01-25 23:49:00,49.6,47.7,29.97,NW,306,0.0,0.0,93,0.00,,SKC,0.20,VWS V14.01,2013-01-26 07:49:00,
2013-01-25 23:54:00,49.5,47.6,29.97,NW,306,0.0,0.0,93,0.00,,SKC,0.20,VWS V14.01,2013-01-26 07:54:00,
2013-01-25 23:59:00,49.5,47.6,29.97,NW,306,0.0,0.0,93,0.00,,SKC,0.20,VWS V14.01,2013-01-26 07:59:00,